QPF
0.00 0.00 0.01 0.00 0.00 0.00 0.00 0.00 0.00 0.00 0.00 0.00 0.00 0.00 0.00 0.00 0.00 0.00 0.00 0.00 0.00 0.00 0.00 0.00 0.00 0.00 0.00 0.00 0.00 0.00 0.00 0.00 0.00 0.00 0.00 0.00 0.00 0.00 0.00 0.00 0.00 0.00 0.00
0.00 0.00 0.02 0.01 0.00 0.00 0.00 0.00 0.00 0.00 0.00 0.00 0.00 0.00 0.00 0.00 0.00 0.00 0.00 0.00 0.00 0.00 0.00 0.00 0.00 0.00 0.00 0.00 0.00 0.00 0.00 0.00 0.00 0.00 0.00 0.00 0.00 0.00 0.00 0.00 0.00 0.00 0.00
0.00 0.00 0.01 0.01 0.00 0.00 0.00 0.00 0.00 0.00 0.00 0.00 0.00 0.00 0.00 0.00 0.00 0.00 0.00 0.00 0.00 0.00 0.00 0.00 0.00 0.00 0.00 0.00 0.00 0.00 0.00 0.00 0.00 0.00 0.00 0.00 0.00 0.00 0.00 0.00 0.00 0.00 0.00
0.00 0.00 0.00 0.00 0.00 0.00 0.00 0.00 0.00 0.00 0.00 0.00 0.00 0.00 0.00 0.00 0.00 0.00 0.00 0.00 0.00 0.00 0.00 0.00 0.00 0.00 0.00 0.00 0.00 0.00 0.00 0.00 0.00 0.00 0.00 0.00 0.00 0.00 0.00 0.00 0.01 0.00 0.00
0.00 0.00 0.00 0.00 0.00 0.00 0.00 0.00 0.00 0.00 0.00 0.00 0.00 0.00 0.00 0.00 0.00 0.00 0.00 0.00 0.00 0.00 0.00 0.00 0.00 0.00 0.00 0.00 0.00 0.00 0.00 0.00 0.00 0.00 0.00 0.00 0.00 0.00 0.00 0.01 0.02 0.03 0.01
0.00 0.00 0.00 0.00 0.00 0.00 0.00 0.00 0.00 0.00 0.00 0.00 0.00 0.00 0.00 0.00 0.00 0.00 0.00 0.00 0.00 0.00 0.00 0.00 0.00 0.00 0.00 0.00 0.00 0.00 0.00 0.00 0.00 0.00 0.00 0.00 0.00 0.00 0.00 0.02 0.05 0.06 0.05
0.00 0.00 0.00 0.00 0.00 0.00 0.00 0.00 0.00 0.00 0.00 0.00 0.00 0.00 0.00 0.00 0.00 0.00 0.00 0.00 0.00 0.00 0.00 0.00 0.00 0.00 0.00 0.00 0.00 0.00 0.00 0.00 0.00 0.00 0.00 0.00 0.00 0.00 0.01 0.07 0.11 0.10 0.07
0.00 0.00 0.00 0.00 0.00 0.00 0.00 0.00 0.00 0.00 0.00 0.00 0.00 0.00 0.00 0.00 0.00 0.00 0.00 0.00 0.00 0.00 0.01 0.00 0.00 0.00 0.00 0.00 0.00 0.00 0.00 0.00 0.00 0.00 0.00 0.00 0.00 0.00 0.04 0.13 0.16 0.13 0.11
0.00 0.00 0.00 0.00 0.00 0.00 0.00 0.00 0.00 0.00 0.00 0.00 0.00 0.00 0.00 0.00 0.00 0.00 0.00 0.00 0.00 0.01 0.01 0.01 0.01 0.00 0.00 0.00 0.00 0.00 0.00 0.00 0.00 0.00 0.00 0.00 0.00 0.01 0.06 0.15 0.17 0.16 0.14
0.00 0.00 0.00 0.00 0.00 0.00 0.00 0.00 0.00 0.00 0.00 0.00 0.00 0.00 0.00 0.00 0.00 0.00 0.00 0.00 0.01 0.01 0.01 0.01 0.01 0.00 0.00 0.00 0.00 0.00 0.00 0.00 0.00 0.00 0.00 0.00 0.00 0.01 0.06 0.13 0.18 0.18 0.18
0.00 0.00 0.00 0.00 0.00 0.00 0.00 0.00 0.00 0.00 0.00 0.00 0.00 0.00 0.00 0.00 0.00 0.00 0.00 0.00 0.01 0.02 0.02 0.01 0.01 0.01 0.00 0.00 0.00 0.00 0.00 0.00 0.00 0.00 0.00 0.00 0.00 0.01 0.05 0.11 0.15 0.18 0.19
0.00 0.00 0.00 0.00 0.00 0.00 0.00 0.00 0.00 0.00 0.00 0.00 0.00 0.00 0.00 0.00 0.00 0.00 0.00 0.00 0.02 0.06 0.06 0.05 0.04 0.02 0.01 0.01 0.00 0.00 0.00 0.00 0.00 0.00 0.00 0.00 0.00 0.03 0.10 0.12 0.13 0.15 0.15
0.00 0.00 0.00 0.00 0.00 0.00 0.00 0.00 0.00 0.00 0.00 0.00 0.00 0.00 0.00 0.00 0.00 0.00 0.00 0.00 0.01 0.03 0.03 0.05 0.05 0.03 0.02 0.01 0.00 0.00 0.00 0.00 0.00 0.00 0.00 0.00 0.01 0.05 0.13 0.11 0.09 0.09 0.09
0.00 0.00 0.00 0.00 0.00 0.00 0.00 0.00 0.00 0.00 0.00 0.00 0.00 0.00 0.00 0.00 0.00 0.00 0.00 0.00 0.00 0.00 0.00 0.01 0.01 0.01 0.01 0.00 0.00 0.00 0.00 0.00 0.00 0.00 0.00 0.00 0.00 0.03 0.09 0.08 0.05 0.05 0.04
0.00 0.00 0.00 0.00 0.00 0.00 0.00 0.00 0.00 0.00 0.00 0.00 0.00 0.00 0.00 0.00 0.00 0.00 0.00 0.00 0.00 0.00 0.00 0.00 0.00 0.00 0.00 0.00 0.00 0.00 0.00 0.00 0.00 0.00 0.00 0.00 0.00 0.01 0.05 0.06 0.05 0.04 0.04
0.00 0.00 0.00 0.00 0.00 0.00 0.00 0.00 0.00 0.00 0.00 0.00 0.00 0.00 0.00 0.00 0.00 0.00 0.00 0.00 0.00 0.00 0.00 0.00 0.00 0.00 0.00 0.00 0.00 0.01 0.00 0.00 0.00 0.00 0.00 0.00 0.00 0.01 0.02 0.04 0.05 0.06 0.06
0.00 0.00 0.00 0.00 0.00 0.00 0.00 0.00 0.00 0.01 0.00 0.00 0.00 0.00 0.00 0.00 0.00 0.00 0.00 0.00 0.00 0.00 0.00 0.00 0.00 0.00 0.00 0.01 0.01 0.01 0.00 0.00 0.00 0.00 0.00 0.00 0.00 0.01 0.02 0.03 0.04 0.05 0.05
0.00 0.01 0.01 0.01 0.01 0.02 0.02 0.02 0.02 0.02 0.02 0.01 0.01 0.01 0.02 0.02 0.02 0.01 0.01 0.01 0.01 0.00 0.00 0.00 0.00 0.01 0.01 0.02 0.01 0.01 0.01 0.01 0.00 0.01 0.00 0.00 0.00 0.00 0.01 0.02 0.04 0.04 0.05
0.02 0.02 0.04 0.04 0.04 0.04 0.03 0.03 0.03 0.03 0.03 0.03 0.03 0.03 0.04 0.04 0.04 0.03 0.01 0.01 0.00 0.01 0.01 0.01 0.01 0.02 0.02 0.02 0.04 0.03 0.02 0.01 0.01 0.01 0.01 0.01 0.01 0.01 0.00 0.00 0.01 0.03 0.04
0.09 0.08 0.08 0.11 0.10 0.07 0.06 0.06 0.06 0.05 0.05 0.06 0.06 0.06 0.05 0.06 0.06 0.05 0.03 0.02 0.01 0.01 0.01 0.01 0.01 0.02 0.02 0.03 0.04 0.03 0.02 0.01 0.00 0.01 0.01 0.02 0.01 0.01 0.01 0.01 0.01 0.01 0.02
0.16 0.14 0.10 0.11 0.15 0.18 0.19 0.17 0.13 0.09 0.08 0.09 0.09 0.08 0.08 0.07 0.08 0.08 0.07 0.04 0.02 0.01 0.01 0.01 0.01 0.01 0.01 0.03 0.04 0.02 0.01 0.00 0.00 0.00 0.01 0.01 0.02 0.02 0.02 0.02 0.02 0.01 0.01
0.08 0.08 0.09 0.12 0.16 0.18 0.22 0.26 0.28 0.26 0.21 0.17 0.16 0.14 0.12 0.12 0.11 0.10 0.07 0.04 0.03 0.01 0.01 0.01 0.01 0.01 0.01 0.03 0.05 0.03 0.01 0.00 0.00 0.00 0.00 0.01 0.02 0.02 0.03 0.04 0.04 0.02 0.02
0.08 0.07 0.09 0.14 0.21 0.27 0.30 0.35 0.41 0.44 0.42 0.35 0.28 0.25 0.22 0.17 0.13 0.11 0.07 0.04 0.02 0.01 0.00 0.00 0.01 0.01 0.01 0.02 0.06 0.09 0.04 0.01 0.00 0.00 0.00 0.01 0.01 0.02 0.05 0.07 0.06 0.04 0.02
0.16 0.16 0.19 0.24 0.30 0.37 0.43 0.46 0.48 0.47 0.46 0.42 0.38 0.30 0.23 0.16 0.11 0.06 0.03 0.02 0.01 0.00 0.00 0.00 0.00 0.01 0.03 0.02 0.04 0.08 0.10 0.06 0.03 0.01 0.00 0.01 0.01 0.02 0.04 0.06 0.07 0.05 0.03
0.26 0.30 0.33 0.38 0.45 0.52 0.55 0.55 0.50 0.44 0.38 0.32 0.28 0.23 0.19 0.12 0.06 0.03 0.01 0.01 0.00 0.00 0.00 0.00 0.01 0.02 0.04 0.04 0.05 0.07 0.10 0.11 0.10 0.06 0.02 0.02 0.02 0.02 0.02 0.03 0.05 0.04 0.03
0.35 0.40 0.43 0.44 0.46 0.49 0.49 0.48 0.44 0.36 0.28 0.23 0.19 0.14 0.09 0.05 0.02 0.01 0.00 0.00 0.00 0.00 0.00 0.00 0.01 0.02 0.03 0.06 0.08 0.10 0.11 0.11 0.11 0.11 0.07 0.05 0.05 0.04 0.03 0.02 0.02 0.03 0.03
MSLP
1012.33 1012.08 1012.05 1012.23 1012.56 1012.96 1013.33 1013.62 1013.78 1013.84 1013.82 1013.80 1013.83 1013.95 1014.18 1014.49 1014.84 1015.19 1015.49 1015.71 1015.84 1015.89 1015.91 1015.92 1015.95 1016.03 1016.15 1016.29 1016.45 1016.59 1016.70 1016.79 1016.84 1016.88 1016.93 1016.98 1017.04 1017.11 1017.18 1017.24 1017.27 1017.30 1017.31
1012.02 1011.89 1011.97 1012.24 1012.64 1013.08 1013.47 1013.76 1013.93 1013.98 1013.98 1013.98 1014.04 1014.20 1014.46 1014.79 1015.15 1015.48 1015.76 1015.94 1016.04 1016.08 1016.09 1016.10 1016.14 1016.23 1016.35 1016.48 1016.61 1016.73 1016.81 1016.88 1016.92 1016.97 1017.03 1017.11 1017.20 1017.28 1017.35 1017.41 1017.43 1017.44 1017.45
1011.71 1011.69 1011.87 1012.22 1012.67 1013.14 1013.56 1013.87 1014.05 1014.13 1014.16 1014.20 1014.30 1014.48 1014.75 1015.07 1015.41 1015.71 1015.93 1016.07 1016.14 1016.16 1016.17 1016.19 1016.25 1016.35 1016.48 1016.61 1016.72 1016.81 1016.87 1016.92 1016.96 1017.01 1017.09 1017.19 1017.29 1017.39 1017.46 1017.51 1017.53 1017.53 1017.55
1011.44 1011.52 1011.78 1012.19 1012.69 1013.20 1013.63 1013.96 1014.16 1014.28 1014.34 1014.42 1014.55 1014.75 1015.02 1015.32 1015.61 1015.85 1016.02 1016.11 1016.14 1016.15 1016.17 1016.22 1016.31 1016.43 1016.57 1016.70 1016.80 1016.87 1016.91 1016.94 1016.98 1017.04 1017.12 1017.23 1017.34 1017.44 1017.51 1017.55 1017.56 1017.56 1017.58
1011.26 1011.42 1011.75 1012.21 1012.73 1013.25 1013.70 1014.04 1014.26 1014.40 1014.50 1014.62 1014.77 1014.98 1015.24 1015.50 1015.74 1015.92 1016.04 1016.08 1016.10 1016.10 1016.14 1016.22 1016.34 1016.50 1016.65 1016.78 1016.88 1016.93 1016.96 1016.98 1017.01 1017.07 1017.15 1017.26 1017.36 1017.44 1017.49 1017.51 1017.51 1017.51 1017.54
1011.22 1011.43 1011.79 1012.27 1012.80 1013.32 1013.76 1014.10 1014.33 1014.49 1014.62 1014.76 1014.93 1015.15 1015.39 1015.63 1015.82 1015.95 1016.02 1016.04 1016.04 1016.06 1016.12 1016.23 1016.39 1016.56 1016.73 1016.87 1016.95 1017.00 1017.01 1017.02 1017.04 1017.09 1017.17 1017.26 1017.34 1017.40 1017.42 1017.41 1017.39 1017.38 1017.41
1011.31 1011.55 1011.93 1012.40 1012.91 1013.40 1013.81 1014.13 1014.36 1014.53 1014.68 1014.83 1015.03 1015.25 1015.48 1015.70 1015.87 1015.97 1016.01 1016.02 1016.02 1016.05 1016.13 1016.27 1016.44 1016.63 1016.80 1016.93 1017.01 1017.04 1017.04 1017.03 1017.05 1017.09 1017.15 1017.22 1017.27 1017.29 1017.27 1017.23 1017.18 1017.15 1017.18
1011.52 1011.77 1012.13 1012.58 1013.05 1013.49 1013.86 1014.14 1014.35 1014.51 1014.67 1014.84 1015.05 1015.29 1015.53 1015.74 1015.90 1016.00 1016.03 1016.04 1016.04 1016.08 1016.17 1016.31 1016.49 1016.67 1016.83 1016.94 1017.00 1017.01 1017.00 1016.99 1016.99 1017.02 1017.07 1017.11 1017.13 1017.11 1017.05 1016.96 1016.88 1016.83 1016.85
1011.79 1012.03 1012.37 1012.77 1013.19 1013.57 1013.88 1014.12 1014.30 1014.45 1014.61 1014.80 1015.03 1015.28 1015.54 1015.77 1015.94 1016.04 1016.08 1016.09 1016.09 1016.13 1016.21 1016.33 1016.49 1016.64 1016.77 1016.85 1016.89 1016.88 1016.86 1016.84 1016.83 1016.85 1016.88 1016.90 1016.88 1016.83 1016.73 1016.60 1016.49 1016.43 1016.44
1012.06 1012.29 1012.60 1012.95 1013.31 1013.64 1013.89 1014.09 1014.24 1014.37 1014.53 1014.73 1014.98 1015.26 1015.54 1015.79 1015.98 1016.09 1016.14 1016.14 1016.14 1016.15 1016.21 1016.29 1016.41 1016.52 1016.61 1016.66 1016.66 1016.64 1016.60 1016.57 1016.56 1016.56 1016.58 1016.57 1016.53 1016.45 1016.32 1016.18 1016.04 1015.97 1015.97
1012.27 1012.49 1012.78 1013.10 1013.41 1013.68 1013.89 1014.05 1014.17 1014.30 1014.46 1014.67 1014.94 1015.24 1015.55 1015.81 1016.01 1016.13 1016.17 1016.17 1016.14 1016.12 1016.13 1016.17 1016.24 1016.30 1016.35 1016.36 1016.34 1016.30 1016.25 1016.21 1016.18 1016.17 1016.17 1016.14 1016.09 1015.99 1015.85 1015.70 1015.56 1015.48 1015.48
1012.37 1012.60 1012.87 1013.17 1013.46 1013.69 1013.88 1014.01 1014.12 1014.25 1014.41 1014.63 1014.91 1015.23 1015.54 1015.81 1016.01 1016.12 1016.15 1016.13 1016.07 1016.02 1015.98 1015.97 1015.99 1016.01 1016.02 1016.01 1015.97 1015.91 1015.84 1015.79 1015.74 1015.71 1015.68 1015.64 1015.57 1015.47 1015.34 1015.20 1015.07 1015.00 1015.00
1012.33 1012.58 1012.86 1013.16 1013.43 1013.66 1013.84 1013.97 1014.08 1014.21 1014.38 1014.61 1014.89 1015.20 1015.50 1015.76 1015.95 1016.04 1016.05 1016.00 1015.92 1015.82 1015.75 1015.71 1015.69 1015.69 1015.68 1015.65 1015.60 1015.53 1015.45 1015.36 1015.29 1015.23 1015.17 1015.10 1015.02 1014.92 1014.81 1014.69 1014.60 1014.55 1014.57
1012.15 1012.42 1012.72 1013.03 1013.32 1013.56 1013.75 1013.89 1014.02 1014.16 1014.34 1014.56 1014.83 1015.12 1015.41 1015.64 1015.80 1015.87 1015.86 1015.78 1015.67 1015.56 1015.47 1015.41 1015.38 1015.37 1015.36 1015.34 1015.28 1015.20 1015.10 1014.99 1014.87 1014.76 1014.66 1014.56 1014.47 1014.37 1014.28 1014.20 1014.14 1014.13 1014.17
1011.83 1012.13 1012.45 1012.78 1013.09 1013.36 1013.58 1013.76 1013.92 1014.07 1014.26 1014.48 1014.73 1014.98 1015.23 1015.42 1015.55 1015.59 1015.56 1015.47 1015.36 1015.25 1015.16 1015.11 1015.10 1015.10 1015.11 1015.10 1015.05 1014.95 1014.83 1014.67 1014.50 1014.34 1014.18 1014.04 1013.92 1013.83 1013.75 1013.71 1013.70 1013.72 1013.79
1011.42 1011.72 1012.06 1012.41 1012.74 1013.04 1013.30 1013.53 1013.72 1013.91 1014.10 1014.31 1014.53 1014.75 1014.95 1015.10 1015.19 1015.21 1015.17 1015.09 1014.99 1014.90 1014.84 1014.83 1014.84 1014.88 1014.92 1014.92 1014.87 1014.77 1014.61 1014.41 1014.18 1013.95 1013.73 1013.54 1013.39 1013.29 1013.23 1013.21 1013.24 1013.30 1013.40
1010.96 1011.25 1011.57 1011.93 1012.28 1012.61 1012.92 1013.19 1013.43 1013.65 1013.85 1014.05 1014.24 1014.42 1014.58 1014.69 1014.76 1014.77 1014.73 1014.67 1014.60 1014.55 1014.54 1014.56 1014.62 1014.69 1014.74 1014.76 1014.72 1014.60 1014.41 1014.16 1013.87 1013.57 1013.29 1013.05 1012.87 1012.75 1012.69 1012.69 1012.74 1012.83 1012.95
1010.52 1010.76 1011.05 1011.38 1011.73 1012.09 1012.44 1012.76 1013.04 1013.29 1013.51 1013.71 1013.88 1014.03 1014.15 1014.24 1014.29 1014.30 1014.28 1014.25 1014.22 1014.22 1014.24 1014.31 1014.39 1014.48 1014.55 1014.57 1014.52 1014.39 1014.17 1013.88 1013.54 1013.19 1012.86 1012.57 1012.35 1012.21 1012.14 1012.14 1012.20 1012.31 1012.44
1010.16 1010.32 1010.55 1010.83 1011.17 1011.53 1011.91 1012.27 1012.60 1012.89 1013.13 1013.33 1013.50 1013.63 1013.73 1013.80 1013.85 1013.87 1013.88 1013.88 1013.89 1013.92 1013.98 1014.06 1014.15 1014.24 1014.30 1014.31 1014.24 1014.09 1013.84 1013.53 1013.17 1012.79 1012.42 1012.10 1011.85 1011.68 1011.59 1011.57 1011.62 1011.72 1011.85
1009.93 1009.99 1010.13 1010.35 1010.64 1011.00 1011.39 1011.79 1012.16 1012.49 1012.76 1012.98 1013.14 1013.27 1013.36 1013.44 1013.49 1013.53 1013.56 1013.60 1013.63 1013.68 1013.74 1013.81 1013.88 1013.94 1013.97 1013.95 1013.85 1013.68 1013.43 1013.12 1012.75 1012.37 1011.99 1011.66 1011.39 1011.19 1011.07 1011.02 1011.04 1011.11 1011.22
1009.87 1009.82 1009.85 1009.99 1010.23 1010.57 1010.96 1011.38 1011.79 1012.16 1012.46 1012.70 1012.89 1013.02 1013.12 1013.20 1013.26 1013.32 1013.38 1013.43 1013.47 1013.51 1013.55 1013.58 1013.60 1013.60 1013.58 1013.51 1013.38 1013.20 1012.96 1012.66 1012.32 1011.96 1011.61 1011.28 1011.00 1010.78 1010.62 1010.53 1010.50 1010.52 1010.59
1009.98 1009.81 1009.74 1009.79 1009.97 1010.27 1010.66 1011.10 1011.53 1011.94 1012.28 1012.55 1012.76 1012.91 1013.02 1013.11 1013.19 1013.27 1013.33 1013.38 1013.41 1013.42 1013.41 1013.37 1013.32 1013.24 1013.14 1013.02 1012.87 1012.69 1012.46 1012.20 1011.92 1011.61 1011.29 1010.99 1010.71 1010.47 1010.28 1010.13 1010.04 1010.01 1010.02
1010.23 1009.96 1009.79 1009.76 1009.87 1010.14 1010.51 1010.95 1011.41 1011.85 1012.22 1012.53 1012.76 1012.94 1013.07 1013.18 1013.26 1013.34 1013.40 1013.43 1013.43 1013.39 1013.31 1013.19 1013.05 1012.89 1012.73 1012.55 1012.38 1012.20 1012.01 1011.80 1011.58 1011.34 1011.08 1010.82 1010.55 1010.30 1010.06 1009.87 1009.71 1009.60 1009.55
1010.56 1010.22 1009.97 1009.86 1009.92 1010.14 1010.50 1010.94 1011.41 1011.87 1012.27 1012.61 1012.87 1013.07 1013.22 1013.34 1013.43 1013.50 1013.54 1013.54 1013.50 1013.39 1013.24 1013.05 1012.82 1012.59 1012.35 1012.14 1011.95 1011.79 1011.64 1011.50 1011.35 1011.18 1010.98 1010.75 1010.50 1010.23 1009.97 1009.71 1009.50 1009.33 1009.21
1010.90 1010.51 1010.21 1010.05 1010.06 1010.24 1010.57 1011.00 1011.48 1011.95 1012.38 1012.74 1013.03 1013.25 1013.41 1013.53 1013.62 1013.67 1013.69 1013.65 1013.56 1013.40 1013.18 1012.92 1012.63 1012.33 1012.06 1011.82 1011.63 1011.49 1011.38 1011.29 1011.21 1011.10 1010.95 1010.76 1010.52 1010.24 1009.95 1009.65 1009.38 1009.16 1008.99
1011.17 1010.77 1010.44 1010.25 1010.22 1010.37 1010.67 1011.08 1011.56 1012.03 1012.48 1012.86 1013.16 1013.40 1013.57 1013.69 1013.77 1013.80 1013.79 1013.71 1013.58 1013.37 1013.10 1012.79 1012.46 1012.13 1011.83 1011.58 1011.40 1011.29 1011.22 1011.17 1011.13 1011.07 1010.96 1010.79 1010.56 1010.27 1009.96 1009.63 1009.32 1009.06 1008.86
Thickness
5809 5809 5806 5803 5800 5798 5796 5795 5794 5793 5792 5790 5789 5787 5785 5782 5780 5777 5775 5773 5772 5770 5769 5768 5766 5764 5761 5759 5757 5755 5753 5751 5749 5748 5747 5746 5745 5744 5744 5743 5742 5741 5740
5818 5813 5809 5805 5802 5799 5797 5795 5794 5792 5791 5789 5788 5786 5784 5782 5779 5777 5774 5772 5771 5769 5768 5766 5765 5763 5761 5759 5757 5755 5752 5750 5749 5747 5746 5744 5743 5743 5742 5741 5741 5740 5740
5821 5816 5811 5807 5803 5800 5797 5795 5793 5791 5790 5788 5787 5785 5784 5781 5779 5776 5774 5771 5769 5768 5766 5764 5763 5761 5760 5758 5756 5754 5752 5750 5748 5747 5745 5743 5742 5741 5740 5740 5739 5739 5739
5823 5818 5813 5808 5804 5801 5798 5795 5793 5791 5789 5787 5786 5784 5782 5780 5778 5776 5773 5771 5769 5766 5765 5763 5762 5760 5759 5757 5755 5754 5752 5750 5748 5747 5745 5743 5742 5741 5740 5739 5738 5738 5738
5822 5819 5815 5810 5805 5802 5798 5795 5792 5790 5788 5786 5785 5783 5781 5779 5777 5775 5773 5770 5768 5766 5764 5762 5761 5759 5758 5756 5755 5753 5752 5750 5748 5747 5745 5743 5742 5741 5740 5739 5738 5737 5737
5822 5819 5815 5811 5806 5803 5799 5796 5793 5790 5788 5786 5784 5782 5780 5778 5776 5774 5772 5770 5767 5765 5763 5761 5760 5758 5757 5756 5754 5753 5751 5749 5748 5746 5745 5744 5743 5741 5740 5740 5739 5738 5737
5821 5819 5815 5811 5807 5803 5800 5796 5793 5791 5788 5786 5784 5782 5780 5777 5776 5774 5772 5769 5767 5765 5762 5761 5759 5758 5757 5755 5754 5753 5751 5750 5748 5746 5745 5744 5744 5743 5742 5742 5741 5740 5739
5821 5818 5814 5810 5807 5803 5800 5797 5794 5791 5788 5786 5783 5781 5779 5777 5775 5773 5771 5769 5767 5765 5763 5761 5759 5758 5756 5755 5754 5753 5752 5750 5749 5747 5746 5745 5745 5745 5745 5745 5744 5742 5740
5818 5815 5813 5810 5806 5803 5799 5796 5793 5791 5788 5786 5784 5781 5779 5777 5775 5773 5771 5769 5767 5765 5763 5761 5759 5758 5757 5756 5755 5754 5753 5751 5750 5749 5747 5747 5746 5746 5746 5747 5746 5744 5742
5814 5812 5810 5808 5805 5802 5799 5795 5792 5790 5788 5786 5784 5782 5779 5777 5775 5772 5770 5769 5767 5765 5762 5760 5759 5757 5756 5756 5755 5754 5754 5753 5752 5750 5749 5749 5748 5748 5748 5748 5748 5746 5744
5810 5809 5807 5805 5803 5800 5797 5794 5791 5789 5787 5785 5783 5781 5779 5777 5774 5772 5770 5768 5767 5765 5763 5761 5759 5757 5756 5756 5755 5755 5754 5754 5753 5752 5751 5751 5751 5750 5750 5750 5750 5749 5747
5807 5806 5805 5803 5801 5798 5796 5793 5791 5788 5786 5783 5781 5780 5778 5775 5773 5771 5769 5768 5767 5766 5764 5762 5760 5759 5757 5756 5755 5754 5754 5754 5754 5753 5754 5754 5753 5753 5753 5753 5752 5751 5749
5808 5806 5804 5801 5799 5796 5794 5792 5789 5787 5784 5782 5779 5777 5775 5773 5772 5770 5769 5767 5767 5766 5764 5763 5762 5760 5758 5756 5755 5754 5754 5754 5754 5755 5755 5755 5755 5755 5755 5755 5754 5753 5751
5806 5804 5803 5800 5797 5794 5792 5789 5787 5785 5783 5780 5778 5776 5773 5771 5770 5768 5768 5767 5766 5765 5764 5763 5761 5760 5759 5757 5756 5755 5754 5754 5755 5755 5756 5756 5757 5757 5757 5757 5756 5755 5753
5805 5803 5802 5800 5797 5793 5790 5787 5785 5783 5781 5779 5777 5775 5772 5770 5769 5768 5767 5766 5765 5764 5763 5763 5761 5760 5759 5757 5756 5755 5755 5754 5754 5755 5755 5757 5757 5757 5757 5758 5757 5755 5753
5805 5803 5801 5798 5796 5792 5789 5786 5784 5781 5779 5777 5775 5774 5772 5770 5768 5767 5765 5764 5764 5763 5763 5762 5761 5759 5758 5757 5756 5755 5755 5754 5754 5754 5755 5755 5756 5757 5757 5757 5756 5755 5753
5804 5802 5800 5797 5793 5789 5786 5783 5781 5779 5776 5774 5773 5772 5770 5769 5768 5766 5764 5763 5763 5763 5761 5760 5759 5758 5756 5755 5755 5755 5754 5754 5754 5754 5754 5754 5755 5756 5756 5756 5756 5754 5753
5802 5799 5797 5796 5791 5787 5784 5781 5779 5776 5774 5772 5771 5770 5769 5768 5766 5765 5763 5763 5763 5761 5759 5757 5756 5754 5753 5752 5752 5753 5753 5753 5753 5753 5753 5753 5753 5754 5755 5755 5754 5753 5752
5799 5797 5794 5793 5790 5785 5782 5779 5776 5773 5770 5769 5767 5767 5766 5765 5764 5762 5761 5761 5760 5758 5756 5755 5754 5751 5750 5749 5750 5750 5751 5751 5752 5752 5752 5752 5752 5752 5753 5753 5752 5751 5750
5795 5793 5790 5787 5786 5782 5777 5772 5770 5768 5766 5764 5762 5761 5761 5760 5760 5758 5757 5756 5755 5753 5751 5750 5748 5748 5746 5745 5746 5747 5748 5749 5750 5750 5750 5751 5751 5750 5750 5750 5750 5749 5748
5786 5785 5783 5780 5777 5774 5770 5765 5761 5759 5758 5756 5755 5754 5754 5753 5753 5752 5751 5749 5749 5747 5746 5744 5742 5741 5741 5739 5737 5739 5744 5746 5747 5747 5748 5748 5748 5748 5747 5747 5746 5746 5746
5770 5771 5771 5771 5769 5767 5764 5760 5757 5754 5751 5749 5746 5745 5745 5744 5745 5744 5743 5741 5741 5739 5739 5737 5735 5734 5735 5733 5729 5727 5729 5734 5739 5743 5743 5743 5743 5743 5743 5743 5742 5743 5743
5755 5759 5760 5760 5759 5757 5755 5751 5747 5744 5741 5736 5733 5733 5734 5733 5733 5733 5732 5733 5732 5732 5731 5731 5729 5727 5727 5728 5724 5719 5717 5721 5725 5732 5735 5736 5736 5736 5737 5737 5738 5739 5739
5745 5749 5751 5751 5749 5748 5745 5740 5736 5732 5730 5727 5725 5724 5724 5723 5722 5723 5724 5724 5724 5725 5725 5724 5724 5722 5720 5721 5720 5718 5716 5717 5713 5717 5723 5726 5727 5728 5729 5731 5733 5734 5735
5737 5739 5740 5739 5738 5738 5736 5730 5724 5724 5722 5719 5717 5715 5713 5712 5713 5714 5714 5715 5716 5717 5717 5717 5717 5716 5715 5714 5713 5712 5710 5708 5708 5705 5708 5713 5715 5719 5722 5724 5726 5727 5728
5728 5729 5729 5727 5725 5724 5724 5720 5715 5715 5713 5709 5707 5705 5704 5704 5705 5705 5706 5707 5708 5708 5708 5708 5708 5708 5707 5707 5706 5705 5703 5701 5700 5699 5699 5702 5703 5708 5712 5715 5717 5719 5721